Location: Brookview Estates
(36.0476°N, 86.6931°W)
Time: 09:59:00
(UTC+00:00)

Cosmos 1703 Rocket - Pass Details

Date: 30 March 2020
Orbit: 605 x 634 km, 82.5° (Epoch: 06 June)

Event Time Altitude Azimuth Distance (km) Brightness Sun altitude
Exits shadow 10:04:21 39° 267° (W) 944 4.0 -18.7°
Maximum altitude 10:04:44 40° 281° (W) 931 4.0 -18.7°
Drops below altitude 10° 10:08:58 10° 351° (N) 2,023 6.3 -17.8°
Sets 10:11:20 0° 359° (N) 2,936 7.3 -17.4°
